• In Deutschland
  • Länderverzeichnis
  • Für 7 Tage
  • Wassertemperatur
  • Satellitenkarten
  • Wetterkarte
  • Widgets
  • user-avatar
    Anmelden

    Stündliche Wetter Shandong

    Heute, 24 Juni, Sonntag

    Zeit Temperatur Niederschläge Wind Luftdruck Luftfeuchtigkeit
    00:00 +29°C° 0 mm 5 m/S 749 mmHg 41%
    01:00 +29°C° 0 mm 5 m/S 749 mmHg 43%
    02:00 +28°C° 0 mm 4 m/S 750 mmHg 48%
    03:00 +27°C° 0 mm 4 m/S 750 mmHg 50%
    04:00 +27°C° 0 mm 4 m/S 750 mmHg 52%
    05:00 +26°C° 0 mm 4 m/S 750 mmHg 54%
    06:00 +27°C° 0 mm 4 m/S 750 mmHg 52%
    07:00 +29°C° 0 mm 4 m/S 751 mmHg 50%
    08:00 +30°C° 0 mm 3 m/S 751 mmHg 45%
    09:00 +33°C° 0 mm 4 m/S 750 mmHg 40%
    10:00 +35°C° 0 mm 4 m/S 750 mmHg 35%
    11:00 +37°C° 0 mm 5 m/S 750 mmHg 30%
    12:00 +39°C° 0 mm 5 m/S 750 mmHg 27%
    13:00 +40°C° 0 mm 5 m/S 749 mmHg 25%
    14:00 +38°C° 0 mm 4 m/S 749 mmHg 26%
    15:00 +39°C° 0 mm 5 m/S 749 mmHg 27%
    16:00 +39°C° 0 mm 5 m/S 749 mmHg 27%
    17:00 +39°C° 0 mm 5 m/S 749 mmHg 28%
    18:00 +37°C° 0 mm 4 m/S 749 mmHg 32%
    19:00 +35°C° 0 mm 4 m/S 749 mmHg 36%
    20:00 +32°C° 0 mm 1 m/S 749 mmHg 39%
    21:00 +31°C° 0 mm 2 m/S 749 mmHg 41%
    22:00 +31°C° 0 mm 3 m/S 749 mmHg 43%
    23:00 +30°C° 0 mm 3 m/S 749 mmHg 46%

    Morgen, 25 Juni, Montag

    Zeit Temperatur Niederschläge Wind Luftdruck Luftfeuchtigkeit
    00:00 +30°C° 0 mm 3 m/S 749 mmHg 49%
    01:00 +29°C° 0 mm 3 m/S 749 mmHg 52%
    02:00 +29°C° 0 mm 3 m/S 749 mmHg 55%
    03:00 +28°C° 0 mm 4 m/S 749 mmHg 57%
    04:00 +28°C° 0 mm 4 m/S 749 mmHg 59%
    05:00 +28°C° 0 mm 4 m/S 749 mmHg 60%
    06:00 +29°C° 0,1 mm 4 m/S 749 mmHg 61%
    07:00 +30°C° 0,1 mm 4 m/S 749 mmHg 61%
    08:00 +32°C° 0,1 mm 5 m/S 749 mmHg 61%
    09:00 +30°C° 2,7 mm 4 m/S 749 mmHg 68%
    10:00 +29°C° 2,7 mm 4 m/S 749 mmHg 76%
    11:00 +28°C° 2,7 mm 4 m/S 749 mmHg 83%
    12:00 +28°C° 4,3 mm 3 m/S 749 mmHg 84%
    13:00 +28°C° 4,3 mm 3 m/S 749 mmHg 85%
    14:00 +29°C° 4,3 mm 3 m/S 749 mmHg 85%
    15:00 +28°C° 4,8 mm 2 m/S 748 mmHg 87%
    16:00 +28°C° 4,8 mm 2 m/S 748 mmHg 89%
    17:00 +28°C° 4,8 mm 2 m/S 748 mmHg 90%
    18:00 +28°C° 3,3 mm 2 m/S 747 mmHg 91%
    19:00 +28°C° 3,3 mm 2 m/S 747 mmHg 91%
    20:00 +28°C° 3,3 mm 1 m/S 747 mmHg 92%
    21:00 +28°C° 2,2 mm 1 m/S 747 mmHg 92%
    22:00 +27°C° 2,2 mm 1 m/S 747 mmHg 93%
    23:00 +27°C° 2,2 mm 1 m/S 747 mmHg 94%

    übermorgen, 26 Juni, Dienstag

    Zeit Temperatur Niederschläge Wind Luftdruck Luftfeuchtigkeit
    00:00 +27°C° 1,1 mm 1 m/S 747 mmHg 94%
    01:00 +27°C° 1,1 mm 1 m/S 747 mmHg 94%
    02:00 +27°C° 1,1 mm 1 m/S 747 mmHg 95%
    03:00 +27°C° 0,2 mm 1 m/S 747 mmHg 95%
    04:00 +27°C° 0,2 mm 1 m/S 747 mmHg 96%
    05:00 +27°C° 0,2 mm 1 m/S 747 mmHg 96%
    06:00 +27°C° 0 mm 2 m/S 747 mmHg 91%
    07:00 +28°C° 0 mm 2 m/S 747 mmHg 86%
    08:00 +29°C° 0 mm 2 m/S 748 mmHg 81%
    09:00 +30°C° 0 mm 2 m/S 748 mmHg 77%
    10:00 +30°C° 0 mm 1 m/S 748 mmHg 72%
    11:00 +31°C° 0 mm 1 m/S 748 mmHg 68%
    12:00 +32°C° 0 mm 1 m/S 748 mmHg 61%
    13:00 +34°C° 0 mm 1 m/S 748 mmHg 54%
    14:00 +35°C° 0 mm 1 m/S 748 mmHg 47%
    15:00 +35°C° 0 mm 1 m/S 747 mmHg 46%
    16:00 +35°C° 0 mm 1 m/S 747 mmHg 45%
    17:00 +35°C° 0 mm 1 m/S 747 mmHg 44%
    18:00 +34°C° 0 mm 1 m/S 747 mmHg 49%
    19:00 +33°C° 0 mm 1 m/S 747 mmHg 53%
    20:00 +32°C° 0 mm 1 m/S 747 mmHg 57%
    21:00 +31°C° 0 mm 1 m/S 747 mmHg 60%
    22:00 +31°C° 0 mm 2 m/S 747 mmHg 63%
    23:00 +30°C° 0 mm 2 m/S 747 mmHg 65%

    27 Juni, Mittwoch

    Zeit Temperatur Niederschläge Wind Luftdruck Luftfeuchtigkeit
    00:00 +30°C° 0 mm 2 m/S 747 mmHg 68%
    01:00 +29°C° 0 mm 2 m/S 746 mmHg 71%
    02:00 +29°C° 0 mm 2 m/S 746 mmHg 74%
    03:00 +29°C° 0 mm 2 m/S 746 mmHg 75%
    04:00 +28°C° 0 mm 2 m/S 746 mmHg 77%
    05:00 +28°C° 0 mm 2 m/S 746 mmHg 79%
    06:00 +29°C° 0 mm 2 m/S 746 mmHg 74%
    07:00 +30°C° 0 mm 1 m/S 746 mmHg 69%
    08:00 +32°C° 0 mm 1 m/S 746 mmHg 64%
    09:00 +33°C° 0 mm 1 m/S 746 mmHg 57%
    10:00 +36°C° 0 mm 2 m/S 746 mmHg 50%
    11:00 +37°C° 0 mm 2 m/S 746 mmHg 43%
    12:00 +38°C° 0 mm 2 m/S 745 mmHg 40%
    13:00 +39°C° 0 mm 3 m/S 745 mmHg 37%
    14:00 +40°C° 0 mm 3 m/S 744 mmHg 33%
    15:00 +41°C° 0 mm 4 m/S 744 mmHg 37%
    16:00 +40°C° 0 mm 5 m/S 744 mmHg 40%
    17:00 +40°C° 0 mm 5 m/S 744 mmHg 43%
    18:00 +37°C° 0 mm 5 m/S 744 mmHg 50%
    19:00 +36°C° 0 mm 5 m/S 744 mmHg 57%
    20:00 +35°C° 0 mm 6 m/S 744 mmHg 64%
    21:00 +33°C° 0,1 mm 5 m/S 745 mmHg 69%
    22:00 +32°C° 0,1 mm 4 m/S 745 mmHg 73%
    23:00 +30°C° 0,1 mm 3 m/S 745 mmHg 78%

    28 Juni, Donnerstag

    Zeit Temperatur Niederschläge Wind Luftdruck Luftfeuchtigkeit
    00:00 +30°C° 0 mm 3 m/S 745 mmHg 79%
    01:00 +29°C° 0 mm 3 m/S 745 mmHg 80%
    02:00 +29°C° 0 mm 2 m/S 745 mmHg 80%
    03:00 +28°C° 0 mm 2 m/S 745 mmHg 81%
    04:00 +28°C° 0 mm 2 m/S 745 mmHg 82%
    05:00 +28°C° 0 mm 2 m/S 745 mmHg 84%
    06:00 +29°C° 0,1 mm 2 m/S 745 mmHg 75%
    07:00 +30°C° 0,1 mm 3 m/S 746 mmHg 67%
    08:00 +33°C° 0,1 mm 3 m/S 746 mmHg 59%
    09:00 +34°C° 0 mm 4 m/S 746 mmHg 50%
    10:00 +35°C° 0 mm 4 m/S 746 mmHg 42%
    11:00 +37°C° 0 mm 4 m/S 746 mmHg 33%
    12:00 +38°C° 0 mm 4 m/S 745 mmHg 30%
    13:00 +38°C° 0 mm 4 m/S 745 mmHg 27%
    14:00 +40°C° 0 mm 4 m/S 745 mmHg 24%
    15:00 +40°C° 0 mm 4 m/S 745 mmHg 24%
    16:00 +38°C° 0 mm 4 m/S 745 mmHg 24%
    17:00 +38°C° 0 mm 4 m/S 745 mmHg 24%
    18:00 +37°C° 0 mm 3 m/S 745 mmHg 27%
    19:00 +35°C° 0 mm 3 m/S 745 mmHg 30%
    20:00 +32°C° 0 mm 2 m/S 745 mmHg 34%
    21:00 +31°C° 0 mm 2 m/S 746 mmHg 36%
    22:00 +31°C° 0 mm 2 m/S 746 mmHg 37%
    23:00 +30°C° 0 mm 1 m/S 746 mmHg 39%

    29 Juni, Freitag

    Zeit Temperatur Niederschläge Wind Luftdruck Luftfeuchtigkeit
    00:00 +29°C° 0 mm 1 m/S 746 mmHg 40%
    01:00 +29°C° 0 mm 1 m/S 746 mmHg 42%
    02:00 +28°C° 0 mm 1 m/S 746 mmHg 43%
    03:00 +28°C° 0 mm 1 m/S 746 mmHg 44%
    04:00 +28°C° 0 mm 1 m/S 746 mmHg 44%
    05:00 +26°C° 0 mm 0 m/S 746 mmHg 44%
    06:00 +29°C° 0 mm 1 m/S 746 mmHg 41%
    07:00 +31°C° 0 mm 1 m/S 747 mmHg 38%
    08:00 +33°C° 0 mm 1 m/S 747 mmHg 35%
    09:00 +34°C° 0 mm 1 m/S 747 mmHg 32%
    10:00 +36°C° 0 mm 2 m/S 747 mmHg 29%
    11:00 +38°C° 0 mm 3 m/S 747 mmHg 26%
    12:00 +38°C° 0 mm 2 m/S 747 mmHg 25%
    13:00 +39°C° 0 mm 2 m/S 746 mmHg 23%
    14:00 +40°C° 0 mm 1 m/S 746 mmHg 22%
    15:00 +39°C° 0 mm 1 m/S 746 mmHg 22%
    16:00 +39°C° 0 mm 1 m/S 746 mmHg 23%
    17:00 +39°C° 0 mm 1 m/S 745 mmHg 24%
    18:00 +36°C° 0 mm 1 m/S 746 mmHg 26%
    19:00 +35°C° 0 mm 1 m/S 746 mmHg 28%
    20:00 +34°C° 0 mm 2 m/S 746 mmHg 30%
    21:00 +32°C° 0 mm 2 m/S 746 mmHg 32%
    22:00 +32°C° 0 mm 2 m/S 747 mmHg 34%
    23:00 +31°C° 0 mm 3 m/S 747 mmHg 36%
    Mehr zeigen